This demonstration page uses our WeatherBlox Daily Observations layout. Learn more.

38.89511, -77.03637

Hourly Observations for April 23, 2017

Temp ( °F °C ) Dew Point ( °F °C ) Humidity (%) Winds ( mph kmh ) Pressure ( in mb ) Visibility ( mi km ) Precip ( " mm )
12:52 am 00:52 Cloudy 52 11.1 49 9.4 89 89 NNW 7 11 30.03 1017 10 16.09344 0 0
1:52 am 01:52 Mostly Cloudy 51 10.6 48 8.9 89 89 N 9 15 30.03 1017 10 16.09344 0 0
2:52 am 02:52 Cloudy 53 11.7 46 7.8 77 77 NNE 12 19 30.03 1017 10 16.09344 0 0
3:52 am 03:52 Cloudy 52 11.1 45 7.2 77 77 NNE 13 20 30.06 1018 10 16.09344 0 0
4:52 am 04:52 Cloudy 51 10.6 43 6.1 74 74 N 12 19 30.06 1018 10 16.09344 0 0
5:52 am 05:52 Mostly Cloudy 50 10 42 5.6 74 74 NNE 12 19 30.06 1018 10 16.09344 0 0
6:52 am 06:52 Mostly Cloudy 49 9.4 40 4.4 71 71 NNE 10 17 30.09 1019 10 16.09344 0 0
7:52 am 07:52 Mostly Cloudy 49 9.4 40 4.4 71 71 NNE 14 22 30.09 1019 10 16.09344 0 0
8:52 am 08:52 Mostly Cloudy 50 10 40 4.4 68 68 NNE 12 19 30.12 1020 10 16.09344 0 0
9:52 am 09:52 Mostly Cloudy 52 11.1 42 5.6 69 69 ENE 7 11 30.12 1020 10 16.09344 0 0
10:52 am 10:52 Mostly Cloudy 54 12.2 43 6.1 67 67 NE 12 19 30.12 1020 10 16.09344 0 0
11:52 am 11:52 Mostly Cloudy 55 12.8 44 6.7 67 67 ENE 5 7 30.15 1021 10 16.09344 0 0
12:52 pm 12:52 Mostly Cloudy 57 13.9 43 6.1 60 60 ESE 5 7 30.12 1020 10 16.09344 0 0
1:52 pm 13:52 Cloudy 59 15 43 6.1 56 56 N 3 6 30.12 1020 10 16.09344 0 0
2:52 pm 14:52 Cloudy 60 15.6 45 7.2 58 58 NE 9 15 30.09 1019 10 16.09344 0 0
3:52 pm 15:52 Cloudy 61 16.1 42 5.6 50 50 E 3 6 30.09 1019 10 16.09344 0 0
4:52 pm 16:52 Cloudy 60 15.6 44 6.7 56 56 SE 8 13 30.06 1018 10 16.09344 0 0
5:52 pm 17:52 Cloudy 59 15 43 6.1 56 56 ESE 8 13 30.06 1018 10 16.09344 0 0
6:52 pm 18:52 Cloudy 59 15 44 6.7 58 58 E 5 7 30.09 1019 10 16.09344 0 0
7:52 pm 19:52 Cloudy 58 14.4 45 7.2 62 62 ESE 6 9 30.09 1019 10 16.09344 0 0
8:52 pm 20:52 Cloudy 58 14.4 45 7.2 62 62 E 6 9 30.09 1019 10 16.09344 0 0
9:52 pm 21:52 Mostly Cloudy 58 14.4 45 7.2 62 62 E 5 7 30.09 1019 10 16.09344 0 0
10:52 pm 22:52 Cloudy 58 14.4 46 7.8 65 65 E 5 7 30.09 1019 10 16.09344 0 0
11:52 pm 23:52 Cloudy 57 13.9 46 7.8 67 67 ENE 6 9 30.09 1019 10 16.09344 0 0

Powered by AerisWeather